Regional Weather Roundup
Issued by NWS

Home | Current Version | Previous Version | Graphics & Text | Print | Product List | Glossary On
Versions: 1 2 3 4 5 6 7 8 9 10 11 12 13 14 15 16 17 18 19 20 21 22 23 24 25 26 27 28 29 30 31 32 33 34 35 36 37 38 39 40 41 42 43 44 45 46 47 48 49 50
000
ASUS43 KBIS 280710
RWRND

NORTH DAKOTA REGIONAL WEATHER ROUNDUP
NATIONAL WEATHER SERVICE BISMARCK ND
200 AM CDT THU AUG 28 2014

NOTE: "FAIR" INDICATES FEW OR NO CLOUDS BELOW 12,000 FEET WITH NO
SIGNIFICANT WEATHER AND/OR OBSTRUCTIONS TO VISIBILITY.


NDZ001>003-009>011-017-280800-
NORTHWEST NORTH DAKOTA

CITY           SKY/WX    TMP DP  RH WIND       PRES   REMARKS
WILLISTON      PTCLDY    66  56  70 S5        29.93F
MINOT          CLEAR     64  60  87 S7        29.94F
MINOT AFB      PTCLDY    61  61 100 S7        29.93F
$$

NDZ018>021-031>035-040>046-280800-
SOUTHWEST NORTH DAKOTA

CITY           SKY/WX    TMP DP  RH WIND       PRES   REMARKS
BISMARCK       MOCLDY    65  60  84 E5        30.00F
DICKINSON      PTCLDY    60  58  92 S10       29.97F
GARRISON         N/A     62  62 100 S6        29.98F
HETTINGER ARPT FOG       53  53 100 CALM      30.02S VSB<1/4
$$

NDZ004>008-012>016-024-026-027-054-280800-
NORTHEAST NORTH DAKOTA

CITY           SKY/WX    TMP DP  RH WIND       PRES   REMARKS
GRAND FORKS    CLEAR     61  58  90 S8        30.02F
GRND FRKS AFB  CLEAR     59  59  99 S7        30.03F
DEVILS LAKE    PTCLDY    64  57  77 S10       29.99F
$$

NDZ022-023-025-028>030-036>039-047>053-280800-
SOUTHEAST NORTH DAKOTA

CITY           SKY/WX    TMP DP  RH WIND       PRES   REMARKS
FARGO          CLOUDY    65  60  84 SE8       30.03F
JAMESTOWN      CLOUDY    65  60  84 SE7       30.01F
$$




USA.gov is the U.S. government's official web portal to all federal, state and local government web resources and services.